Regional Weather Roundup
Issued by NWS

Home | Current Version | Previous Version | Graphics & Text | Print | Product List | Glossary On
Versions: 1 2 3 4 5 6 7 8 9 10 11 12 13 14 15 16 17 18 19 20 21 22 23 24 25 26 27 28 29 30 31 32 33 34 35 36 37 38 39 40 41 42 43 44 45 46 47 48 49 50
000
ASUS43 KBIS 240710
RWRND

NORTH DAKOTA REGIONAL WEATHER ROUNDUP
NATIONAL WEATHER SERVICE BISMARCK ND
200 AM CDT FRI OCT 24 2014

NOTE: "FAIR" INDICATES FEW OR NO CLOUDS BELOW 12,000 FEET WITH NO
SIGNIFICANT WEATHER AND/OR OBSTRUCTIONS TO VISIBILITY.


NDZ001>003-009>011-017-240800-
NORTHWEST NORTH DAKOTA

CITY           SKY/WX    TMP DP  RH WIND       PRES   REMARKS
WILLISTON      CLOUDY    42  34  73 CALM      29.79R
MINOT          CLOUDY    52  33  48 SW10      29.74F
MINOT AFB      CLOUDY    51  35  55 W12       29.73F
$$

NDZ018>021-031>035-040>046-240800-
SOUTHWEST NORTH DAKOTA

CITY           SKY/WX    TMP DP  RH WIND       PRES   REMARKS
BISMARCK       CLOUDY    50  32  50 SW6       29.82S
DICKINSON      MOCLDY    46  32  58 W7        29.81F
GARRISON         N/A     46  39  76 SW6       29.78F
HETTINGER ARPT MOCLDY    43  28  55 VRB5      29.87F
$$

NDZ004>008-012>016-024-026-027-054-240800-
NORTHEAST NORTH DAKOTA

CITY           SKY/WX    TMP DP  RH WIND       PRES   REMARKS
GRAND FORKS    PTCLDY    46  37  71 S8        29.75S
GRND FRKS AFB  CLEAR     54  37  53 SW9       29.75S
DEVILS LAKE    MOCLDY    52  36  54 SW8       29.75S
$$

NDZ022-023-025-028>030-036>039-047>053-240800-
SOUTHEAST NORTH DAKOTA

CITY           SKY/WX    TMP DP  RH WIND       PRES   REMARKS
FARGO          MOCLDY    51  42  71 S9        29.81R
JAMESTOWN      CLOUDY    50  37  61 SW7       29.79F
$$




USA.gov is the U.S. government's official web portal to all federal, state and local government web resources and services.